FW1349 Weather Reports


Display with metric or nautical units.
time (UTC)temp
F
wind
direction
speed
MPH
gust
MPH
rain 1hr
in
rain 24hr
in
rain mn
in
humidity
%
barometer
mb
20260506100016 33 0.0 0.0 0.00 0.00 0.00 68 1089.5
20260506095016 33 0.0 0.0 0.00 0.00 0.00 67 1089.5
20260506094016 34 0.0 0.0 0.00 0.00 0.00 67 1089.6
20260506093016 34 0.0 0.0 0.00 0.00 0.00 66 1089.6
20260506092057 34 0.0 0.0 0.00 0.00 0.00 66
20260506091016 35 0.0 0.0 0.00 0.00 0.00 65
20260506090016 35 0.0 0.0 0.00 0.00 0.00 63
20260506085017 36 0.0 0.0 0.00 0.00 0.00 63
20260506084057 36 0.0 0.0 0.00 0.00 0.00 62
20260506083017 36 0.0 0.0 0.00 0.00 0.00 62
20260506082016 37 0.0 1.0 0.00 0.00 0.00 61
20260506081016 37 0.0 1.0 0.00 0.00 0.00 60
20260506073036 38 0.0 1.0 0.00 0.00 0.00 59 893.6
20260506072036 38 45 1.0 4.0 0.00 0.00 0.00 59 893.5
20260506071016 38 90 1.0 6.0 0.00 0.00 0.00 58 893.5
20260506062015 40 68 2.0 6.0 0.00 0.00 0.00 56 893.6
20260506061016 40 90 2.0 6.0 0.00 0.00 0.00 56 893.6
20260506051017 41 90 2.0 4.0 0.00 0.00 0.00 54 893.6
20260506045038 42 135 2.0 4.0 0.00 0.00 0.00 54 893.6
20260506044016 42 68 2.0 7.0 0.00 0.00 0.00 53 893.6
20260506043017 42 113 1.0 2.0 0.00 0.00 0.00 52 893.6
20260506042016 43 135 2.0 4.0 0.00 0.00 0.00 52 893.6
20260506041017 43 113 3.0 6.0 0.00 0.00 0.00 52 893.6
20260506040037 43 113 2.0 6.0 0.00 0.00 0.00 52 893.6
20260506035016 43 113 3.0 7.0 0.00 0.00 0.00 51 893.6
20260506034016 44 113 4.0 7.0 0.00 0.00 0.00 51 893.6
20260506033037 44 113 3.0 6.0 0.00 0.00 0.00 50 893.6
20260506032057 45 113 3.0 6.0 0.00 0.00 0.00 50 893.6
20260506031016 45 90 4.0 8.0 0.00 0.00 0.00 49 893.6
20260506030037 45 68 2.0 4.0 0.00 0.00 0.00 49 893.6
20260506025017 45 90 2.0 6.0 0.00 0.00 0.00 48 893.6
20260506024016 46 90 4.0 11.0 0.00 0.00 0.00 47 893.6
20260506023016 46 135 2.0 6.0 0.00 0.00 0.00 46 893.6
20260506022016 46 90 2.0 6.0 0.00 0.00 0.00 46 893.6
20260506021016 47 68 3.0 5.0 0.00 0.00 0.00 45 893.6
20260506020016 47 68 3.0 8.0 0.00 0.00 0.00 44 893.6
20260506015016 47 135 2.0 6.0 0.00 0.00 0.00 43 893.6
20260506014016 48 113 4.0 7.0 0.00 0.00 0.00 43 893.6
20260506013038 48 113 4.0 8.0 0.00 0.00 0.00 43 893.6
20260506012016 49 90 4.0 9.0 0.00 0.00 0.00 42 893.5
20260506011015 49 113 6.0 11.0 0.00 0.00 0.00 42 893.6
20260506010016 50 90 5.0 11.0 0.00 0.00 0.00 41 893.6
20260506005015 50 68 5.0 15.0 0.00 0.00 0.00 40 893.6
20260506004015 50 113 5.0 10.0 0.00 0.00 0.00 40 893.6
20260506003016 50 68 4.0 10.0 0.00 0.00 0.00 39 893.6
20260506002016 51 113 4.0 10.0 0.00 0.00 0.00 39 893.6
20260506001016 51 113 3.0 8.0 0.00 0.00 0.00 39 893.6
20260506000015 51 90 3.0 10.0 0.00 0.00 0.00 38 893.6
20260505235015 51 45 3.0 6.0 0.00 0.00 0.00 39 893.6
20260505234017 51 113 3.0 9.0 0.00 0.00 0.00 39 893.6
20260505233017 52 68 3.0 8.0 0.00 0.00 0.00 38 893.6
20260505232018 52 68 5.0 14.0 0.00 0.00 0.00 37 893.6
20260505231038 52 68 6.0 13.0 0.00 0.00 0.00 37 893.6
20260505230017 52 68 3.0 9.0 0.00 0.00 0.00 39 893.6
20260505225017 51 68 4.0 11.0 0.00 0.00 0.00 39 893.6
20260505224017 52 90 4.0 9.0 0.00 0.00 0.00 39 893.6
20260505223017 52 158 4.0 12.0 0.00 0.00 0.00 39 893.6
20260505222038 52 113 3.0 7.0 0.00 0.00 0.00 39 893.6
20260505221017 52 90 4.0 11.0 0.00 0.00 0.00 40 893.6
20260505220017 52 113 4.0 12.0 0.00 0.00 0.00 39 893.6
20260505215017 52 113 3.0 7.0 0.00 0.00 0.00 39 893.7
20260505214018 52 90 3.0 8.0 0.00 0.00 0.00 39 893.7
20260505213017 52 90 3.0 10.0 0.00 0.00 0.00 39 893.7
20260505212016 52 90 3.0 9.0 0.00 0.00 0.00 38 893.7
20260505211017 52 113 3.0 7.0 0.00 0.00 0.00 39 893.7
20260505210017 52 68 4.0 11.0 0.00 0.00 0.00 38 893.7
20260505205016 52 90 4.0 9.0 0.00 0.00 0.00 38 893.7
20260505204016 52 90 2.0 5.0 0.00 0.00 0.00 40 893.7
20260505203016 51 90 4.0 12.0 0.00 0.00 0.00 39 893.7
20260505202037 51 90 4.0 10.0 0.00 0.00 0.00 39 893.7
20260505201016 51 90 3.0 10.0 0.00 0.00 0.00 38 893.7
20260505200016 52 113 4.0 11.0 0.00 0.00 0.00 39 893.7
20260505195017 52 90 4.0 8.0 0.00 0.00 0.00 39 893.7
20260505194016 52 90 4.0 11.0 0.00 0.00 0.00 39 893.7
20260505193037 52 90 4.0 8.0 0.00 0.00 0.00 40 893.7
20260505192016 52 68 4.0 10.0 0.00 0.00 0.00 39 893.7
20260505191037 52 68 4.0 13.0 0.00 0.00 0.00 39 893.7
20260505190016 51 68 4.0 11.0 0.00 0.00 0.00 39 893.7
20260505185016 52 113 3.0 10.0 0.00 0.00 0.00 39 893.7
20260505184017 52 90 4.0 10.0 0.00 0.00 0.00 40 893.7
20260505183016 51 68 3.0 8.0 0.00 0.00 0.00 38 893.7
20260505182036 51 90 5.0 12.0 0.00 0.00 0.00 38 893.7
20260505181017 51 90 3.0 9.0 0.00 0.00 0.00 38 893.7
20260505180016 51 90 3.0 8.0 0.00 0.00 0.00 38 893.7
20260505175016 51 90 4.0 10.0 0.00 0.00 0.00 39 893.7
20260505174017 51 68 5.0 14.0 0.00 0.00 0.00 37 893.7
20260505173037 50 68 3.0 10.0 0.00 0.00 0.00 39 893.7
20260505172016 50 90 4.0 10.0 0.00 0.00 0.00 38 893.7
20260505171016 50 90 3.0 8.0 0.00 0.00 0.00 38 893.7
20260505170016 50 23 3.0 6.0 0.00 0.00 0.00 38 893.7
20260505165016 51 90 3.0 8.0 0.00 0.00 0.00 37 893.7
20260505164015 51 68 3.0 9.0 0.00 0.00 0.00 38 893.7
20260505163015 51 45 3.0 8.0 0.00 0.00 0.00 37 893.7
20260505162036 51 90 4.0 8.0 0.00 0.00 0.00 38 893.7
20260505161015 50 113 5.0 9.0 0.00 0.00 0.00 40 893.7
20260505153017 49 90 4.0 10.0 0.00 0.00 0.00 40 893.7
20260505152018 49 113 4.0 8.0 0.00 0.00 0.00 42 893.7
20260505151017 48 113 4.0 10.0 0.00 0.00 0.00 42 893.7
20260505125017 41 90 3.0 6.0 0.00 0.00 0.00 51 893.7
20260505124016 41 113 3.0 8.0 0.00 0.00 0.00 52 893.7
20260505123037 41 113 3.0 6.0 0.00 0.00 0.00 55 893.7
20260505122016 40 90 3.0 8.0 0.00 0.00 0.00 56 893.7
20260505121057 40 113 3.0 8.0 0.00 0.00 0.00 57 893.7
20260505120017 40 68 2.0 5.0 0.00 0.00 0.00 58 893.7
20260505115017 40 45 2.0 5.0 0.00 0.00 0.00 59 893.7
20260505114017 40 90 3.0 7.0 0.00 0.00 0.00 60 893.7
20260505113016 40 90 3.0 8.0 0.00 0.00 0.00 62 893.7
20260505112016 40 68 3.0 6.0 0.00 0.00 0.00 63 893.7
20260505111017 40 113 3.0 6.0 0.00 0.00 0.00 63 893.7
20260505102016 41 113 2.0 6.0 0.00 0.00 0.00 64 893.8
20260505101017 41 0.0 2.0 0.00 0.00 0.00 63 893.9